Olbia, Italy

8:50 AM CEST on September 23, 2017 (GMT +0200)
Costa Smeralda

Weather History for LIEO - October, 2011

Change the Weather History Date:

Saturday, October 22, 2011

  Actual Average Record
Temperature  
Mean Temperature 54 °F -  
Max Temperature 64 °F 65 °F 89 °F (2013)
Min Temperature 45 °F 48 °F 41 °F (2007)
Degree Days  
Heating Degree Days 10    
Growing Degree Days 4 (Base 50)    
Moisture  
Dew Point 48 °F    
Average Humidity 73    
Maximum Humidity 93    
Minimum Humidity 45    
Precipitation  
Precipitation 0.00 in 0.07 in - ()
Sea Level Pressure  
Sea Level Pressure 30.15 in    
Wind  
Wind Speed 4 mph ()    
Max Wind Speed 12 mph    
Max Gust Speed -    
Visibility 6.8 miles    
Events      
Averages and records for this station are not official NWS values.
T = Trace of Precipitation, MM = Missing Value Source: Averaged Metar Reports

Daily Weather History Graph

Daily Weather History Graph

Search for Another Location

Airport or City:

Trip Planner

Search our weather history database for the weather conditions in past years. The results will help you decide how hot, cold, wet, or windy it might be!

Date:

Astronomy

Oct. 22, 2011 Rise Set
Actual Time 7:40 AM CEST 6:31 PM CEST
Civil Twilight 7:12 AM CEST 6:59 PM CEST
Nautical Twilight 6:40 AM CEST 7:31 PM CEST
Astronomical Twilight 6:08 AM CEST 8:03 PM CEST
Moon 2:16 AM CEST (10/22) 3:42 PM CEST (10/22)
Length of Visible Light 11h 47m
Length of Day
10h 51m
Waning Crescent, 26% of the Moon is Illuminated
Oct 22
Waning Crescent
Oct 26
New
Nov 2
First Quarter
Nov 10
Full
Nov 18
Last Quarter

Hourly Weather History & Observations

Time (CEST) Temp. Dew Point Humidity Pressure Visibility Wind Dir Wind Speed Gust Speed Precip Events Conditions
12:20 AM 50.0 °F 46.4 °F 87% 30.18 in 6.2 mi South 4.6 mph - N/A   Partly Cloudy
12:50 AM 48.2 °F 44.6 °F 87% 30.18 in 6.2 mi SSW 3.5 mph - N/A   Partly Cloudy
1:20 AM 48.2 °F 44.6 °F 87% 30.18 in 6.2 mi SW 3.5 mph - N/A   Partly Cloudy
1:50 AM 48.2 °F 46.4 °F 93% 30.18 in 6.2 mi SW 3.5 mph - N/A   Partly Cloudy
2:00 AM 49 °F 46 °F 84% 30.18 in 12 mi SW 3.5 mph - -   Partly Cloudy
2:20 AM 50.0 °F 46.4 °F 87% 30.18 in 6.2 mi SW 3.5 mph - N/A   Partly Cloudy
2:50 AM 50.0 °F 46.4 °F 87% 30.18 in 6.2 mi SSW 5.8 mph - N/A   Partly Cloudy
3:20 AM 48.2 °F 44.6 °F 87% 30.15 in 6.2 mi South 3.5 mph - N/A   Partly Cloudy
3:50 AM 46.4 °F 42.8 °F 87% 30.15 in 6.2 mi Variable 1.2 mph - N/A   Partly Cloudy
4:20 AM 48.2 °F 44.6 °F 87% 30.15 in 6.2 mi SSW 4.6 mph - N/A   Partly Cloudy
4:50 AM 48.2 °F 44.6 °F 87% 30.15 in 6.2 mi SSW 5.8 mph - N/A   Partly Cloudy
5:00 AM 48 °F 45 °F 84% 30.15 in 12 mi SSW 3.5 mph - -   Partly Cloudy
5:20 AM 46.4 °F 42.8 °F 87% 30.15 in 6.2 mi Variable 2.3 mph - N/A   Scattered Clouds
5:50 AM 48.2 °F 44.6 °F 87% 30.15 in 6.2 mi SW 3.5 mph - N/A   Scattered Clouds
6:20 AM 48.2 °F 46.4 °F 93% 30.15 in 6.2 mi SW 2.3 mph - N/A   Scattered Clouds
6:50 AM 50.0 °F 46.4 °F 87% 30.15 in 6.2 mi SSW 3.5 mph - N/A   Scattered Clouds
7:20 AM 50.0 °F 46.4 °F 87% 30.15 in 6.2 mi Variable 2.3 mph - N/A   Scattered Clouds
7:50 AM 50.0 °F 46.4 °F 87% 30.15 in 6.2 mi SSW 3.5 mph - N/A   Mostly Cloudy
8:00 AM 51 °F 47 °F 82% 30.15 in 12 mi SSW 3.5 mph - -   Mostly Cloudy
8:20 AM 51.8 °F 48.2 °F 88% 30.15 in 6.2 mi South 3.5 mph - N/A   Mostly Cloudy
8:50 AM 51.8 °F 48.2 °F 88% 30.18 in 6.2 mi Variable 2.3 mph - N/A   Mostly Cloudy
9:20 AM 53.6 °F 50.0 °F 88% 30.18 in 6.2 mi Variable 1.2 mph - N/A   Scattered Clouds
9:50 AM 57.2 °F 50.0 °F 77% 30.18 in 6.2 mi Variable 2.3 mph - N/A   Scattered Clouds
10:20 AM 59.0 °F 50.0 °F 72% 30.18 in 6.2 mi Variable 2.3 mph - N/A   Scattered Clouds
10:50 AM 62.6 °F 50.0 °F 63% 30.18 in 6.2 mi Variable 3.5 mph - N/A   Scattered Clouds
11:00 AM 62 °F 49 °F 52% 30.18 in 12 mi NE 8.1 mph - -   Mostly Cloudy
11:20 AM 62.6 °F 48.2 °F 59% 30.18 in 6.2 mi NE 8.1 mph - N/A   Scattered Clouds
11:50 AM 64.4 °F 48.2 °F 56% 30.18 in 6.2 mi ENE 6.9 mph - N/A   Scattered Clouds
12:20 PM 62.6 °F 48.2 °F 59% 30.18 in 6.2 mi ENE 8.1 mph - N/A   Scattered Clouds
12:50 PM 62.6 °F 48.2 °F 59% 30.18 in 6.2 mi NE 11.5 mph - N/A   Scattered Clouds
1:20 PM 62.6 °F 48.2 °F 59% 30.15 in 6.2 mi NE 9.2 mph - N/A   Scattered Clouds
1:50 PM 64.4 °F 48.2 °F 56% 30.15 in 6.2 mi NE 10.4 mph - N/A   Scattered Clouds
2:00 PM 64 °F 48 °F 45% 30.15 in 12 mi NE 10.4 mph - -   Mostly Cloudy
2:20 PM 62.6 °F 46.4 °F 55% 30.15 in 6.2 mi NE 10.4 mph - N/A   Scattered Clouds
2:50 PM 64.4 °F 46.4 °F 52% 30.15 in 6.2 mi NE 10.4 mph - N/A   Scattered Clouds
3:20 PM 64.4 °F 48.2 °F 56% 30.12 in 6.2 mi NE 10.4 mph - N/A   Scattered Clouds
3:50 PM 62.6 °F 48.2 °F 59% 30.12 in 6.2 mi NE 9.2 mph - N/A   Partly Cloudy
4:20 PM 64.4 °F 48.2 °F 56% 30.12 in 6.2 mi NE 10.4 mph - N/A   Partly Cloudy
4:50 PM 62.6 °F 50.0 °F 63% 30.12 in 6.2 mi NE 9.2 mph - N/A   Scattered Clouds
5:20 PM 62.6 °F 50.0 °F 63% 30.12 in 6.2 mi NE 8.1 mph - N/A   Scattered Clouds
5:50 PM 62.6 °F 50.0 °F 63% 30.12 in 6.2 mi NE 6.9 mph - N/A   Mostly Cloudy
6:20 PM 62.6 °F 51.8 °F 68% 30.12 in 6.2 mi ENE 4.6 mph - N/A   Mostly Cloudy
6:50 PM 62.6 °F 50.0 °F 63% 30.12 in 6.2 mi ENE 4.6 mph - N/A   Mostly Cloudy
7:20 PM 60.8 °F 50.0 °F 68% 30.12 in 6.2 mi ENE 3.5 mph - N/A   Mostly Cloudy
7:50 PM 60.8 °F 50.0 °F 68% 30.12 in 6.2 mi NE 2.3 mph - N/A   Mostly Cloudy
8:20 PM 60.8 °F 51.8 °F 72% 30.12 in 6.2 mi NE 5.8 mph - N/A   Mostly Cloudy
8:50 PM 62.6 °F 51.8 °F 68% 30.12 in 6.2 mi NE 5.8 mph - N/A   Mostly Cloudy
9:20 PM 60.8 °F 51.8 °F 72% 30.12 in 6.2 mi NE 5.8 mph - N/A   Scattered Clouds
9:50 PM 60.8 °F 50.0 °F 68% 30.12 in 6.2 mi NE 4.6 mph - N/A   Scattered Clouds
10:20 PM 59.0 °F 50.0 °F 72% 30.15 in 6.2 mi Variable 1.2 mph - N/A   Scattered Clouds
10:50 PM 57.2 °F 50.0 °F 77% 30.15 in 6.2 mi Variable 2.3 mph - N/A   Scattered Clouds
11:00 PM 58 °F 50 °F 66% 30.15 in 12 mi West 1.2 mph - -   Mostly Cloudy
11:20 PM 57.2 °F 50.0 °F 77% 30.15 in 6.2 mi Variable 1.2 mph - N/A   Scattered Clouds
11:50 PM 57.2 °F 50.0 °F 77% 30.12 in 6.2 mi Variable 2.3 mph - N/A   Scattered Clouds